INTELSAT 29E (IS-29E) (41308 NORAD) Tracking and Keplerian Element Data

This shows tracking and keplerian element data for the satellite.

Feedback or suggestion? Click here.




ElementValue
Catalog41308
NameINTELSAT 29E (IS-29E)
Epoch Orbit1069
Epoch Day348.90686558
Epoch Year2018
RAAN266.7236
Inclination0.0146
Eccentricity0.0001359
Argument of Perigee344.2991
Mean Anonmoly108.9763
Mean Motion1.00271457
Decay Rate-2.7E-06
L11 41308U 16004A 18348.90686558 -.00000270 00000-0 00000-0 0 9998
L22 41308 0.0146 266.7236 0001359 344.2991 108.9763 1.00271457 10698

Live tracking and technical data element details for INTELSAT 29E (IS-29E) (NORAD 41308). INTELSAT 29E (IS-29E) can be tracked NOW for your location showing map with azimuth and elevation plus other details from your city location.

Track the satellite on the map from your city or location and see movement details for azimuth, elevation, latitude, longitude, range, height, and movement on the map or in text.







IsCatalogInMostPopularTable: catalog: 41308, numindb: 111
Update: records affected: 1



GetName: 41308 INTELSAT 29E (IS-29E)

Hit Count: updated at: Sun, 16 Dec 2018 11:26:00 GMT